Weather History for Tuscaloosa, AL

Change the Weather History Date:

Saturday, December 15, 2012

  Actual Average Record
Temperature  
Mean Temperature 57 °F 47 °F  
Max Temperature 64 °F 58 °F 76 °F (1948)
Min Temperature 49 °F 36 °F 16 °F (1968)
Degree Days  
Heating Degree Days 8 18  
Month to date heating degree days 133 251  
Since 1 July heating degree days 629 688  
Growing Degree Days 6 (Base 50)    
Moisture  
Dew Point 51 °F    
Average Humidity 75    
Maximum Humidity 86    
Minimum Humidity 63    
Precipitation  
Precipitation T in 0.14 in 1.51 in (1982)
Month to date precipitation 3.07 2.48  
Year to date precipitation 43.58 50.46  
Sea Level Pressure  
Sea Level Pressure 30.07 in    
Wind  
Wind Speed 7 mph (SSE)    
Max Wind Speed 14 mph    
Max Gust Speed 18 mph    
Visibility 10 miles    
Events      
T = Trace of Precipitation, MM = Missing Value Source: NWS Daily Summary

Daily Weather History Graph

Daily Weather History Graph

Search for Another Location

Airport:

Trip Planner

Search our weather history database for the weather conditions in past years. The results will help you decide how hot, cold, wet, or windy it might be!

Date:

Astronomy

Dec. 15, 2012 Rise Set
Actual Time 6:46 AM CST 4:44 PM CST
Civil Twilight 6:19 AM CST 5:12 PM CST
Nautical Twilight 5:48 AM CST 5:43 PM CST
Astronomical Twilight 5:18 AM CST 6:13 PM CST
Moon 8:44 AM CST (12/15) 7:42 PM CST (12/15)
Length of Visible Light 10h 53m
Length of Day
9h 58m
Waxing Crescent, 8% of the Moon is Illuminated
Dec 15
Waxing Crescent
Dec 19
First Quarter
Dec 28
Full
Jan 4
Last Quarter
Jan 11
New

Hourly Weather History & Observations

Time (CST) Temp. Dew Point Humidity Pressure Visibility Wind Dir Wind Speed Gust Speed Precip Events Conditions
12:53 AM 48.9 °F 44.1 °F 83% 30.16 in 10.0 mi ESE 3.5 mph - N/A   Overcast
1:53 AM 48.9 °F 44.1 °F 83% 30.15 in 10.0 mi East 5.8 mph - N/A   Overcast
2:53 AM 50.0 °F 44.1 °F 80% 30.15 in 10.0 mi Calm Calm - N/A   Overcast
3:53 AM 50.0 °F 44.1 °F 80% 30.14 in 10.0 mi Calm Calm - N/A   Mostly Cloudy
4:53 AM 50.0 °F 45.0 °F 83% 30.14 in 10.0 mi ESE 4.6 mph - N/A   Mostly Cloudy
5:53 AM 51.1 °F 45.0 °F 80% 30.19 in 10.0 mi Calm Calm - N/A   Overcast
6:53 AM 50.0 °F 46.0 °F 86% 30.16 in 10.0 mi ESE 4.6 mph - 0.00 in   Overcast
7:34 AM 51.8 °F 46.4 °F 82% 30.16 in 10.0 mi SE 9.2 mph - N/A   Overcast
7:53 AM 52.0 °F 46.0 °F 80% 30.17 in 9.0 mi SE 6.9 mph - N/A   Overcast
8:53 AM 53.1 °F 46.9 °F 80% 30.16 in 10.0 mi ESE 8.1 mph - N/A   Overcast
9:53 AM 55.9 °F 46.9 °F 72% 30.17 in 10.0 mi SSE 5.8 mph - N/A   Overcast
10:53 AM 57.0 °F 48.0 °F 72% 30.14 in 10.0 mi SSE 6.9 mph - N/A   Overcast
11:53 AM 59.0 °F 48.9 °F 69% 30.10 in 10.0 mi ESE 6.9 mph - N/A   Overcast
12:53 PM 62.1 °F 51.1 °F 67% 30.06 in 10.0 mi SSE 9.2 mph - N/A   Overcast
1:53 PM 64.0 °F 52.0 °F 65% 30.03 in 10.0 mi SSE 6.9 mph - N/A   Overcast
2:53 PM 64.0 °F 53.1 °F 67% 30.01 in 10.0 mi SSE 5.8 mph - N/A   Overcast
3:53 PM 64.0 °F 54.0 °F 70% 30.00 in 10.0 mi South 10.4 mph - N/A   Overcast
4:53 PM 63.0 °F 54.0 °F 72% 30.01 in 10.0 mi South 10.4 mph - N/A   Scattered Clouds
5:53 PM 63.0 °F 54.0 °F 72% 30.01 in 10.0 mi South 10.4 mph - N/A   Overcast
6:53 PM 62.1 °F 55.0 °F 78% 30.00 in 10.0 mi South 4.6 mph - N/A   Mostly Cloudy
7:53 PM 63.0 °F 55.9 °F 78% 30.00 in 10.0 mi South 9.2 mph - N/A   Overcast
8:53 PM 63.0 °F 57.0 °F 81% 30.00 in 10.0 mi South 8.1 mph - N/A   Overcast
9:53 PM 64.0 °F 57.0 °F 78% 29.99 in 10.0 mi South 11.5 mph - N/A   Overcast
10:53 PM 63.0 °F 57.9 °F 84% 29.98 in 10.0 mi South 11.5 mph - N/A   Mostly Cloudy
11:12 PM 62.6 °F 57.2 °F 82% 29.98 in 10.0 mi South 8.1 mph - N/A   Overcast
11:31 PM 64.4 °F 59.0 °F 83% 29.99 in 10.0 mi South 4.6 mph - N/A   Overcast
11:53 PM 64.0 °F 59.0 °F 84% 29.97 in 10.0 mi South 10.4 mph - N/A   Overcast